,,Stat6,,Stat2,,Stat8,,Stat9,,Stat10,,Wind1,,Wind1,
time,status,PA1M_AVG,status,PR1M_SUM,status,RH1M_AVG,status,SR1M_AVG,status,TA1M_AVG,status,W1dAve1m,status,W1sAve1m,
2009-02-10, 00:00:00,VALID,918.671,VALID,0,VALID,97.6198,VALID,0.0679233,VALID,18.3357,VALID,115,VALID,0,
2009-02-10, 00:01:00,VALID,918.663,VALID,0,VALID,97.2892,VALID,0.0339617,VALID,18.2389,VALID,115,VALID,0,
2009-02-10, 00:02:00,VALID,918.641,VALID,0,VALID,97.7177,VALID,0,VALID,18.1712,VALID,115,VALID,0,
2009-02-10, 00:03:00,VALID,918.613,VALID,0,VALID,98.1869,VALID,0.0509425,VALID,18.1513,VALID,115,VALID,0,
2009-02-10, 00:04:00,VALID,918.588,VALID,0,VALID,98.2721,VALID,0.0849042,VALID,18.1189,VALID,130,VALID,0,
2009-02-10, 00:05:00,VALID,918.561,VALID,0,VALID,98.4667,VALID,0.0339617,VALID,18.0797,VALID,144,VALID,0,
2009-02-10, 00:06:00,VALID,918.529,VALID,0,VALID,98.9308,VALID,0.0509425,VALID,18.0601,VALID,154,VALID,0,
2009-02-10, 00:07:01,VALID,918.487,VALID,0,VALID,99.6836,VALID,0.0679233,VALID,18.0897,VALID,157,VALID,0,
2009-02-10, 00:08:00,VALID,918.468,VALID,0,VALID,99.9964,VALID,-0.0339617,VALID,18.1138,VALID,157,VALID,0,
2009-02-10, 00:09:01,VALID,918.457,VALID,0,VALID,100,VALID,-0.0509425,VALID,18.1272,VALID,158,VALID,0,
2009-02-10, 00:10:00,VALID,918.442,VALID,0,VALID,100,VALID,-0.0509425,VALID,18.1233,VALID,158,VALID,0.0786577,
2009-02-10, 00:11:00,VALID,918.439,VALID,0,VALID,100,VALID,-0.0339617,VALID,18.0908,VALID,158,VALID,0.23056,
2009-02-10, 00:12:01,VALID,918.446,VALID,0,VALID,100,VALID,-0.0679233,VALID,18.039,VALID,155,VALID,0.622396,
2009-02-10, 00:13:00,VALID,918.454,VALID,0,VALID,100,VALID,-0.0169808,VALID,18.0098,VALID,147,VALID,0.00247713,
2009-02-10, 00:14:01,VALID,918.462,VALID,0,VALID,100,VALID,-0.0509425,VALID,17.9838,VALID,154,VALID,0,
2009-02-10, 00:15:00,VALID,918.467,VALID,0,VALID,100,VALID,-0.0679233,VALID,17.9449,VALID,149,VALID,0,
2009-02-10, 00:16:00,VALID,918.476,VALID,0,VALID,100,VALID,-0.0339617,VALID,17.9352,VALID,149,VALID,0,
2009-02-10, 00:17:01,VALID,918.468,VALID,0,VALID,100,VALID,-0.0509425,VALID,17.9352,VALID,152,VALID,0,
2009-02-10, 00:18:00,VALID,918.461,VALID,0,VALID,100,VALID,-0.0169808,VALID,17.9484,VALID,160,VALID,0,
2009-02-10, 00:19:00,VALID,918.446,VALID,0,VALID,100,VALID,-0.0509425,VALID,17.9713,VALID,169,VALID,0,
2009-02-10, 00:20:01,VALID,918.445,VALID,0,VALID,100,VALID,-0.0339617,VALID,17.9711,VALID,170,VALID,0.126243,
2009-02-10, 00:21:01,VALID,918.448,VALID,0,VALID,100,VALID,-0.0339617,VALID,17.9648,VALID,158,VALID,0.0379464,
2009-02-10, 00:22:00,VALID,918.466,VALID,0,VALID,100,VALID,-0.0339617,VALID,17.981,VALID,157,VALID,0,
2009-02-10, 00:23:00,VALID,918.476,VALID,0,VALID,100,VALID,0.0509425,VALID,17.9862,VALID,149,VALID,0,
2009-02-10, 00:24:00,VALID,918.489,VALID,0,VALID,100,VALID,0,VALID,17.9857,VALID,146,VALID,0,
2009-02-10, 00:25:00,VALID,918.486,VALID,0,VALID,100,VALID,0.0509425,VALID,18.0056,VALID,148,VALID,0,
2009-02-10, 00:26:00,VALID,918.476,VALID,0,VALID,100,VALID,0.0509425,VALID,18.0021,VALID,146,VALID,0,
2009-02-10, 00:27:01,VALID,918.473,VALID,0,VALID,100,VALID,0.0679233,VALID,17.969,VALID,141,VALID,0,
2009-02-10, 00:28:00,VALID,918.465,VALID,0,VALID,100,VALID,0.0679233,VALID,17.9725,VALID,140,VALID,0,
2009-02-10, 00:29:00,VALID,918.45,VALID,0,VALID,100,VALID,0.0679233,VALID,17.966,VALID,139,VALID,0,
2009-02-10, 00:30:00,VALID,918.444,VALID,0,VALID,100,VALID,0.0509425,VALID,17.9693,VALID,128,VALID,0,
2009-02-10, 00:31:00,VALID,918.427,VALID,0,VALID,100,VALID,0.0339617,VALID,17.9727,VALID,131,VALID,0,
2009-02-10, 00:32:00,VALID,918.422,VALID,0,VALID,100,VALID,0.0339617,VALID,17.9825,VALID,135,VALID,0,
2009-02-10, 00:33:00,VALID,918.441,VALID,0,VALID,100,VALID,0.0339617,VALID,18.0316,VALID,134,VALID,0,
2009-02-10, 00:34:01,VALID,918.429,VALID,0,VALID,100,VALID,0.0339617,VALID,18.0179,VALID,131,VALID,0,
2009-02-10, 00:35:00,VALID,918.441,VALID,0,VALID,99.9814,VALID,0.0509425,VALID,17.9917,VALID,122,VALID,0,
2009-02-10, 00:36:01,VALID,918.434,VALID,0,VALID,99.8604,VALID,0.0169808,VALID,17.9699,VALID,127,VALID,0,
2009-02-10, 00:37:00,VALID,918.426,VALID,0,VALID,99.793,VALID,0.0339617,VALID,17.9278,VALID,139,VALID,0,
2009-02-10, 00:38:00,VALID,918.422,VALID,0,VALID,99.9649,VALID,-0.0679233,VALID,17.8997,VALID,133,VALID,0,
2009-02-10, 00:39:00,VALID,918.399,VALID,0,VALID,100,VALID,-0.0339617,VALID,17.8958,VALID,133,VALID,0,
2009-02-10, 00:40:00,VALID,918.381,VALID,0,VALID,100,VALID,-0.0679233,VALID,17.9287,VALID,139,VALID,0,
2009-02-10, 00:41:01,VALID,918.347,VALID,0,VALID,100,VALID,-0.0169808,VALID,17.8991,VALID,134,VALID,0,
2009-02-10, 00:42:00,VALID,918.336,VALID,0,VALID,100,VALID,-0.0849042,VALID,17.8573,VALID,138,VALID,0,
2009-02-10, 00:43:01,VALID,918.305,VALID,0,VALID,100,VALID,-0.0849042,VALID,17.8029,VALID,140,VALID,0,
2009-02-10, 00:44:00,VALID,918.28,VALID,0,VALID,100,VALID,-0.0509425,VALID,17.7116,VALID,143,VALID,0.0526042,
2009-02-10, 00:45:00,VALID,918.27,VALID,0,VALID,100,VALID,-0.0679233,VALID,17.6563,VALID,155,VALID,0.236719,
2009-02-10, 00:46:00,VALID,918.246,VALID,0,VALID,100,VALID,-0.0679233,VALID,17.6429,VALID,153,VALID,0.0619673,
2009-02-10, 00:47:01,VALID,918.214,VALID,0,VALID,100,VALID,-0.0849042,VALID,17.6431,VALID,149,VALID,0.187305,
2009-02-10, 00:48:00,VALID,918.181,VALID,0,VALID,100,VALID,-0.0679233,VALID,17.6116,VALID,141,VALID,0.132241,
2009-02-10, 00:49:00,VALID,918.162,VALID,0,VALID,100,VALID,-0.0339617,VALID,17.575,VALID,149,VALID,0.771839,
2009-02-10, 00:50:00,VALID,918.118,VALID,0,VALID,100,VALID,0,VALID,17.5491,VALID,142,VALID,0.309896,
2009-02-10, 00:51:01,VALID,918.106,VALID,0,VALID,100,VALID,-0.0339617,VALID,17.5102,VALID,137,VALID,0,
2009-02-10, 00:52:01,VALID,918.084,VALID,0,VALID,100,VALID,-0.0169808,VALID,17.4972,VALID,121,VALID,0.345898,
2009-02-10, 00:53:01,VALID,918.08,VALID,0,VALID,100,VALID,-0.0509425,VALID,17.5301,VALID,130,VALID,0.58631,
2009-02-10, 00:54:00,VALID,918.088,VALID,0,VALID,100,VALID,-0.0339617,VALID,17.5755,VALID,121,VALID,0.834484,
2009-02-10, 00:55:01,VALID,918.094,VALID,0,VALID,100,VALID,-0.0169808,VALID,17.5718,VALID,125,VALID,1.57664,
2009-02-10, 00:56:01,VALID,918.089,VALID,0,VALID,100,VALID,-0.0169808,VALID,17.5521,VALID,126,VALID,0.891006,
2009-02-10, 00:57:01,VALID,918.08,VALID,0,VALID,100,VALID,0,VALID,17.5488,VALID,134,VALID,1.432,
2009-02-10, 00:58:01,VALID,918.058,VALID,0,VALID,100,VALID,-0.0509425,VALID,17.5556,VALID,139,VALID,1.04371,
2009-02-10, 00:59:01,VALID,918.041,VALID,0,VALID,100,VALID,-0.0169808,VALID,17.5551,VALID,151,VALID,1.14724,
2009-02-10, 01:00:01,VALID,918.02,VALID,0,VALID,100,VALID,-0.0169808,VALID,17.5359,VALID,150,VALID,0.897743,
2009-02-10, 01:01:00,VALID,917.994,VALID,0,VALID,100,VALID,-0.0339617,VALID,17.5528,VALID,158,VALID,0.817361,
2009-02-10, 01:02:01,VALID,917.983,VALID,0,VALID,100,VALID,-0.0339617,VALID,17.5229,VALID,148,VALID,1.06623,
2009-02-10, 01:03:01,VALID,917.959,VALID,0,VALID,100,VALID,-0.0339617,VALID,17.5134,VALID,150,VALID,0.949405,
2009-02-10, 01:04:01,VALID,917.967,VALID,0,VALID,100,VALID,-0.0339617,VALID,17.4937,VALID,159,VALID,0.792259,
2009-02-10, 01:05:01,VALID,917.956,VALID,0,VALID,100,VALID,-0.0339617,VALID,17.497,VALID,155,VALID,1.04802,
2009-02-10, 01:06:01,VALID,917.952,VALID,0,VALID,100,VALID,-0.0339617,VALID,17.497,VALID,149,VALID,0.860352,
2009-02-10, 01:07:01,VALID,917.939,VALID,0,VALID,100,VALID,-0.0169808,VALID,17.5067,VALID,156,VALID,0.907848,
2009-02-10, 01:08:00,VALID,917.927,VALID,0,VALID,100,VALID,-0.0169808,VALID,17.5002,VALID,153,VALID,0.945313,
2009-02-10, 01:09:00,VALID,917.932,VALID,0,VALID,100,VALID,-0.0169808,VALID,17.4937,VALID,151,VALID,0.869922,
2009-02-10, 01:10:00,VALID,917.921,VALID,0,VALID,100,VALID,-0.0339617,VALID,17.5102,VALID,150,VALID,0.834484,
2009-02-10, 01:11:00,VALID,917.929,VALID,0,VALID,100,VALID,-0.0339617,VALID,17.5169,VALID,147,VALID,0.899346,
2009-02-10, 01:12:00,VALID,917.935,VALID,0,VALID,100,VALID,-0.0339617,VALID,17.5231,VALID,149,VALID,0.479288,
2009-02-10, 01:13:00,VALID,917.957,VALID,0,VALID,100,VALID,-0.0169808,VALID,17.5197,VALID,149,VALID,0.623001,
2009-02-10, 01:14:00,VALID,917.971,VALID,0,VALID,100,VALID,-0.0169808,VALID,17.5227,VALID,146,VALID,0.616587,
2009-02-10, 01:15:00,VALID,917.981,VALID,0,VALID,100,VALID,-0.0339617,VALID,17.5134,VALID,137,VALID,0.862043,
2009-02-10, 01:16:00,VALID,917.99,VALID,0,VALID,100,VALID,0,VALID,17.5069,VALID,136,VALID,0.819949,
2009-02-10, 01:17:00,VALID,917.988,VALID,0,VALID,99.9802,VALID,-0.0339617,VALID,17.4972,VALID,135,VALID,0.866629,
2009-02-10, 01:18:00,VALID,917.991,VALID,0,VALID,99.7243,VALID,0.0169808,VALID,17.4905,VALID,134,VALID,0.984375,
2009-02-10, 01:19:00,VALID,918.01,VALID,0,VALID,99.3098,VALID,-0.0169808,VALID,17.4706,VALID,131,VALID,0.793968,
2009-02-10, 01:20:00,VALID,918.004,VALID,0,VALID,98.7414,VALID,0,VALID,17.3539,VALID,127,VALID,0.893415,
2009-02-10, 01:21:00,VALID,918.008,VALID,0,VALID,98.8558,VALID,0,VALID,17.2633,VALID,121,VALID,0.995908,
2009-02-10, 01:22:00,VALID,918.006,VALID,0,VALID,99.105,VALID,0,VALID,17.2311,VALID,120,VALID,0.898785,
2009-02-10, 01:23:00,VALID,918.019,VALID,0,VALID,99.1063,VALID,0,VALID,17.241,VALID,120,VALID,0.764172,
2009-02-10, 01:24:00,VALID,918.015,VALID,0,VALID,98.9372,VALID,-0.0169808,VALID,17.2149,VALID,120,VALID,0.895647,
2009-02-10, 01:25:00,VALID,918.001,VALID,0,VALID,98.8965,VALID,0,VALID,17.2147,VALID,114,VALID,0.998633,
2009-02-10, 01:26:00,VALID,918.01,VALID,0,VALID,98.7134,VALID,-0.0169808,VALID,17.2049,VALID,110,VALID,0.90767,
2009-02-10, 01:27:00,VALID,917.999,VALID,0,VALID,98.7045,VALID,0,VALID,17.1887,VALID,109,VALID,0.842478,
2009-02-10, 01:28:00,VALID,917.992,VALID,0,VALID,98.6422,VALID,0,VALID,17.1889,VALID,109,VALID,0.568892,
2009-02-10, 01:29:00,VALID,917.982,VALID,0,VALID,98.5799,VALID,-0.0169808,VALID,17.1857,VALID,108,VALID,0.00816761,
2009-02-10, 01:30:00,VALID,917.954,VALID,0,VALID,98.5811,VALID,0,VALID,17.1822,VALID,111,VALID,0,
2009-02-10, 01:31:00,VALID,917.947,VALID,0,VALID,98.6244,VALID,0,VALID,17.2052,VALID,126,VALID,0.123728,
2009-02-10, 01:32:00,VALID,917.936,VALID,0,VALID,98.5036,VALID,-0.0679233,VALID,17.1889,VALID,123,VALID,0.0626905,
2009-02-10, 01:33:00,VALID,917.938,VALID,0,VALID,98.5697,VALID,-0.0169808,VALID,17.1952,VALID,125,VALID,0,
2009-02-10, 01:34:00,VALID,917.924,VALID,0,VALID,98.5137,VALID,-0.0339617,VALID,17.2084,VALID,137,VALID,0.655382,
2009-02-10, 01:35:00,VALID,917.943,VALID,0,VALID,98.5341,VALID,-0.0169808,VALID,17.2149,VALID,143,VALID,0.635099,
2009-02-10, 01:36:00,VALID,917.958,VALID,0,VALID,98.2454,VALID,-0.0339617,VALID,17.2151,VALID,143,VALID,0,
2009-02-10, 01:37:00,VALID,917.974,VALID,0,VALID,97.4227,VALID,-0.0339617,VALID,17.0919,VALID,127,VALID,0,
2009-02-10, 01:38:00,VALID,917.966,VALID,0,VALID,97.7673,VALID,-0.0509425,VALID,16.9847,VALID,127,VALID,0.230923,
2009-02-10, 01:39:00,VALID,917.953,VALID,0,VALID,98.7045,VALID,-0.0169808,VALID,17.0204,VALID,127,VALID,0.150856,
2009-02-10, 01:40:00,VALID,917.941,VALID,0,VALID,98.7515,VALID,-0.0169808,VALID,17.0465,VALID,119,VALID,0,
2009-02-10, 01:41:00,VALID,917.939,VALID,0,VALID,98.9334,VALID,-0.0509425,VALID,17.0301,VALID,111,VALID,0,
2009-02-10, 01:42:00,VALID,917.913,VALID,0,VALID,99.2513,VALID,0,VALID,17.1014,VALID,103,VALID,0,
2009-02-10, 01:43:00,VALID,917.91,VALID,0,VALID,99.1686,VALID,-0.0339617,VALID,17.1857,VALID,103,VALID,0,
2009-02-10, 01:44:00,VALID,917.912,VALID,0,VALID,99.0084,VALID,-0.0339617,VALID,17.257,VALID,103,VALID,0,
2009-02-10, 01:45:00,VALID,917.906,VALID,0,VALID,98.8965,VALID,0,VALID,17.3573,VALID,103,VALID,0,
2009-02-10, 01:46:00,VALID,917.909,VALID,0,VALID,98.4629,VALID,-0.0339617,VALID,17.4159,VALID,103,VALID,0,
2009-02-10, 01:47:00,VALID,917.916,VALID,0,VALID,97.6046,VALID,-0.0169808,VALID,17.3671,VALID,103,VALID,0,
2009-02-10, 01:48:00,VALID,917.901,VALID,0,VALID,97.0883,VALID,-0.0339617,VALID,17.2698,VALID,139,VALID,0.426235,
2009-02-10, 01:49:00,VALID,917.89,VALID,0,VALID,97.7826,VALID,-0.0169808,VALID,17.2568,VALID,143,VALID,0.851563,
2009-02-10, 01:50:00,VALID,917.878,VALID,0,VALID,98.0204,VALID,0,VALID,17.3085,VALID,143,VALID,0.18564,
2009-02-10, 01:51:00,VALID,917.884,VALID,0,VALID,98.0102,VALID,0,VALID,17.3284,VALID,152,VALID,0.592115,
2009-02-10, 01:52:00,VALID,917.861,VALID,0,VALID,98.1106,VALID,-0.0169808,VALID,17.3346,VALID,153,VALID,0.657639,
2009-02-10, 01:53:00,VALID,917.849,VALID,0,VALID,98.2747,VALID,-0.0509425,VALID,17.3441,VALID,154,VALID,0.750727,
2009-02-10, 01:54:00,VALID,917.815,VALID,0,VALID,98.3917,VALID,-0.0509425,VALID,17.3539,VALID,155,VALID,0.880632,
2009-02-10, 01:55:00,VALID,917.806,VALID,0,VALID,98.4781,VALID,0,VALID,17.3603,VALID,159,VALID,0.200893,
2009-02-10, 01:56:00,VALID,917.802,VALID,0,VALID,98.515,VALID,-0.0339617,VALID,17.3411,VALID,162,VALID,0.0147569,
2009-02-10, 01:57:00,VALID,917.791,VALID,0,VALID,98.7007,VALID,-0.0339617,VALID,17.348,VALID,160,VALID,0,
2009-02-10, 01:58:00,VALID,917.786,VALID,0,VALID,98.7655,VALID,-0.0169808,VALID,17.3381,VALID,157,VALID,0,
2009-02-10, 01:59:00,VALID,917.767,VALID,0,VALID,98.8177,VALID,-0.0169808,VALID,17.3253,VALID,152,VALID,0,
2009-02-10, 02:00:00,VALID,917.751,VALID,0,VALID,99.0504,VALID,-0.0169808,VALID,17.3057,VALID,141,VALID,0,
2009-02-10, 02:01:00,VALID,917.745,VALID,0,VALID,99.1152,VALID,-0.0169808,VALID,17.2503,VALID,140,VALID,0,
2009-02-10, 02:02:00,VALID,917.746,VALID,0,VALID,99.339,VALID,-0.0509425,VALID,17.2216,VALID,137,VALID,0,
2009-02-10, 02:03:00,VALID,917.75,VALID,0,VALID,99.4535,VALID,-0.0339617,VALID,17.1987,VALID,134,VALID,0,
2009-02-10, 02:04:00,VALID,917.751,VALID,0,VALID,99.5387,VALID,-0.0169808,VALID,17.1727,VALID,134,VALID,0,
2009-02-10, 02:05:00,VALID,917.753,VALID,0,VALID,99.7599,VALID,-0.0169808,VALID,17.1693,VALID,132,VALID,0.131324,
2009-02-10, 02:06:00,VALID,917.747,VALID,0,VALID,99.7421,VALID,-0.0339617,VALID,17.1628,VALID,125,VALID,0.195107,
2009-02-10, 02:07:00,VALID,917.745,VALID,0,VALID,99.676,VALID,-0.0169808,VALID,17.1598,VALID,123,VALID,0.519097,
2009-02-10, 02:08:00,VALID,917.734,VALID,0,VALID,99.559,VALID,0,VALID,17.1397,VALID,120,VALID,0.645952,
2009-02-10, 02:09:00,VALID,917.731,VALID,0,VALID,99.3594,VALID,0,VALID,17.1012,VALID,111,VALID,0.169457,
2009-02-10, 02:10:00,VALID,917.724,VALID,0,VALID,99.1788,VALID,0,VALID,17.0266,VALID,100,VALID,0.985828,
2009-02-10, 02:11:00,VALID,917.735,VALID,0,VALID,99.1813,VALID,-0.0169808,VALID,16.9622,VALID,82,VALID,0.829033,
2009-02-10, 02:12:00,VALID,917.729,VALID,0,VALID,99.4382,VALID,0,VALID,16.9034,VALID,77,VALID,0.718941,
2009-02-10, 02:13:00,VALID,917.717,VALID,0,VALID,99.8349,VALID,-0.0169808,VALID,16.9034,VALID,84,VALID,0.477412,
2009-02-10, 02:14:00,VALID,917.723,VALID,0,VALID,99.9939,VALID,0,VALID,16.9199,VALID,114,VALID,0.664435,
2009-02-10, 02:15:00,VALID,917.699,VALID,0,VALID,100,VALID,0,VALID,16.9423,VALID,120,VALID,0.601381,
2009-02-10, 02:16:00,VALID,917.679,VALID,0,VALID,99.9285,VALID,0,VALID,16.9519,VALID,126,VALID,0.288491,
2009-02-10, 02:17:00,VALID,917.665,VALID,0,VALID,99.8413,VALID,-0.0169808,VALID,16.9488,VALID,127,VALID,0.0375381,
2009-02-10, 02:18:00,VALID,917.671,VALID,0,VALID,99.8934,VALID,0.0339617,VALID,16.9482,VALID,116,VALID,0,
2009-02-10, 02:19:00,VALID,917.679,VALID,0,VALID,99.9695,VALID,0,VALID,16.9683,VALID,117,VALID,0,
2009-02-10, 02:20:00,VALID,917.68,VALID,0,VALID,99.9087,VALID,0.0169808,VALID,16.9845,VALID,117,VALID,0,
2009-02-10, 02:21:00,VALID,917.683,VALID,0,VALID,99.807,VALID,-0.0509425,VALID,16.9877,VALID,111,VALID,0,
2009-02-10, 02:22:00,VALID,917.665,VALID,0,VALID,99.7777,VALID,-0.0339617,VALID,17.0301,VALID,116,VALID,0,
2009-02-10, 02:23:00,VALID,917.66,VALID,0,VALID,99.4268,VALID,-0.0509425,VALID,17.088,VALID,120,VALID,0.0425967,
2009-02-10, 02:24:00,VALID,917.656,VALID,0,VALID,98.9537,VALID,-0.0679233,VALID,17.1144,VALID,121,VALID,0.00688244,
2009-02-10, 02:25:00,VALID,917.675,VALID,0,VALID,98.6142,VALID,-0.101885,VALID,17.1016,VALID,121,VALID,0.0178052,
2009-02-10, 02:26:00,VALID,917.669,VALID,0,VALID,98.4642,VALID,-0.0849042,VALID,17.0725,VALID,122,VALID,0.252096,
2009-02-10, 02:27:00,VALID,917.665,VALID,0,VALID,98.5137,VALID,-0.0339617,VALID,17.0398,VALID,123,VALID,0.0176711,
2009-02-10, 02:28:00,VALID,917.644,VALID,0,VALID,98.5087,VALID,-0.0849042,VALID,16.9977,VALID,123,VALID,0.175576,
2009-02-10, 02:29:00,VALID,917.624,VALID,0,VALID,98.4591,VALID,-0.0679233,VALID,16.9458,VALID,119,VALID,0.0729167,
2009-02-10, 02:30:00,VALID,917.601,VALID,0,VALID,98.4286,VALID,-0.0849042,VALID,16.9166,VALID,120,VALID,0,
2009-02-10, 02:31:00,VALID,917.592,VALID,0,VALID,98.4514,VALID,-0.101885,VALID,16.9006,VALID,125,VALID,0,
2009-02-10, 02:32:00,VALID,917.585,VALID,0,VALID,98.384,VALID,-0.0679233,VALID,16.8745,VALID,125,VALID,0,
2009-02-10, 02:33:00,VALID,917.581,VALID,0,VALID,98.5468,VALID,-0.0849042,VALID,16.865,VALID,126,VALID,0,
2009-02-10, 02:34:00,VALID,917.568,VALID,0,VALID,98.6524,VALID,-0.0509425,VALID,16.8745,VALID,128,VALID,0,
2009-02-10, 02:35:00,VALID,917.56,VALID,0,VALID,98.6778,VALID,-0.0679233,VALID,16.9071,VALID,129,VALID,0,
2009-02-10, 02:36:00,VALID,917.559,VALID,0,VALID,98.6994,VALID,-0.0679233,VALID,16.9199,VALID,128,VALID,0,
2009-02-10, 02:37:00,VALID,917.537,VALID,0,VALID,98.735,VALID,-0.0509425,VALID,16.9294,VALID,128,VALID,0,
2009-02-10, 02:38:00,VALID,917.531,VALID,0,VALID,98.6358,VALID,0.0169808,VALID,16.9218,VALID,129,VALID,0,
2009-02-10, 02:39:00,VALID,917.514,VALID,0,VALID,98.6015,VALID,0.0679233,VALID,16.8987,VALID,131,VALID,0,
2009-02-10, 02:40:00,VALID,917.506,VALID,0,VALID,98.7871,VALID,0.0679233,VALID,16.8825,VALID,136,VALID,0.852896,
2009-02-10, 02:41:00,VALID,917.488,VALID,0,VALID,98.9474,VALID,0.0849042,VALID,16.9121,VALID,139,VALID,1.27289,
2009-02-10, 02:42:00,VALID,917.471,VALID,0,VALID,99.0694,VALID,0.0679233,VALID,16.9246,VALID,138,VALID,1.3971,
2009-02-10, 02:43:00,VALID,917.454,VALID,0,VALID,99.1928,VALID,0.0169808,VALID,16.9769,VALID,142,VALID,0.845567,
2009-02-10, 02:44:00,VALID,917.425,VALID,0,VALID,99.0631,VALID,0.0339617,VALID,17.0126,VALID,142,VALID,0.919017,
2009-02-10, 02:45:00,VALID,917.416,VALID,0,VALID,98.9792,VALID,0.0169808,VALID,17.0093,VALID,142,VALID,0.822368,
2009-02-10, 02:46:00,VALID,917.406,VALID,0,VALID,98.9728,VALID,0.0169808,VALID,17.0061,VALID,147,VALID,0.899962,
2009-02-10, 02:47:00,VALID,917.4,VALID,0,VALID,99.0071,VALID,0.0169808,VALID,17.0189,VALID,150,VALID,1.10901,
2009-02-10, 02:48:00,VALID,917.413,VALID,0,VALID,99.0961,VALID,0.0169808,VALID,17.0126,VALID,150,VALID,0.920759,
2009-02-10, 02:49:00,VALID,917.434,VALID,0,VALID,99.2068,VALID,0.0339617,VALID,16.9992,VALID,158,VALID,0.944531,
2009-02-10, 02:50:00,VALID,917.436,VALID,0,VALID,99.339,VALID,0.0169808,VALID,16.9895,VALID,151,VALID,0.654102,
2009-02-10, 02:51:00,VALID,917.446,VALID,0,VALID,99.4306,VALID,0,VALID,16.9769,VALID,152,VALID,0.450391,
2009-02-10, 02:52:00,VALID,917.455,VALID,0,VALID,99.47,VALID,0.0339617,VALID,16.951,VALID,155,VALID,1.2182,
2009-02-10, 02:53:00,VALID,917.45,VALID,0,VALID,99.676,VALID,0.0339617,VALID,16.9378,VALID,154,VALID,1.33301,
2009-02-10, 02:54:00,VALID,917.456,VALID,0,VALID,99.8489,VALID,0.0339617,VALID,16.964,VALID,156,VALID,1.18785,
2009-02-10, 02:55:00,VALID,917.46,VALID,0,VALID,99.8299,VALID,0.0339617,VALID,16.9864,VALID,153,VALID,0.898438,
2009-02-10, 02:56:00,VALID,917.452,VALID,0,VALID,99.6976,VALID,0,VALID,16.9931,VALID,147,VALID,0,
2009-02-10, 02:57:00,VALID,917.455,VALID,0,VALID,99.6188,VALID,0.0509425,VALID,17.0158,VALID,148,VALID,1.01435,
2009-02-10, 02:58:00,VALID,917.441,VALID,0,VALID,99.4471,VALID,0.0679233,VALID,17.0547,VALID,151,VALID,0.521484,
2009-02-10, 02:59:00,VALID,917.439,VALID,0,VALID,99.2246,VALID,0.0679233,VALID,17.074,VALID,147,VALID,0.744048,
2009-02-10, 03:00:00,VALID,917.41,VALID,0,VALID,99.0618,VALID,0.0169808,VALID,17.0897,VALID,150,VALID,0.70846,
2009-02-10, 03:01:00,VALID,917.388,VALID,0,VALID,98.8711,VALID,0.0509425,VALID,17.1261,VALID,143,VALID,0.0583212,
2009-02-10, 03:02:00,VALID,917.365,VALID,0,VALID,98.6638,VALID,0.0339617,VALID,17.1425,VALID,141,VALID,0.785974,
2009-02-10, 03:03:00,VALID,917.363,VALID,0,VALID,98.3993,VALID,0,VALID,17.1682,VALID,141,VALID,1.25,
2009-02-10, 03:04:00,VALID,917.359,VALID,0,VALID,98.0356,VALID,0.0509425,VALID,17.1874,VALID,134,VALID,0.537791,
2009-02-10, 03:05:00,VALID,917.355,VALID,0,VALID,97.658,VALID,0.0339617,VALID,17.233,VALID,135,VALID,1.14435,
2009-02-10, 03:06:00,VALID,917.352,VALID,0,VALID,97.1836,VALID,0,VALID,17.2914,VALID,131,VALID,1.21513,
2009-02-10, 03:07:00,VALID,917.346,VALID,0,VALID,96.7742,VALID,0.0509425,VALID,17.3173,VALID,136,VALID,0.963844,
2009-02-10, 03:08:00,VALID,917.341,VALID,0,VALID,96.4131,VALID,-0.0339617,VALID,17.3212,VALID,136,VALID,1.23125,
2009-02-10, 03:09:00,VALID,917.335,VALID,0,VALID,96.1333,VALID,-0.0339617,VALID,17.3539,VALID,132,VALID,0.248095,
2009-02-10, 03:10:00,VALID,917.329,VALID,0,VALID,95.762,VALID,0,VALID,17.3703,VALID,129,VALID,1.23438,
2009-02-10, 03:11:00,VALID,917.317,VALID,0,VALID,95.4238,VALID,-0.0339617,VALID,17.4029,VALID,120,VALID,1.03365,
2009-02-10, 03:12:00,VALID,917.333,VALID,0,VALID,95.1173,VALID,-0.0339617,VALID,17.364,VALID,117,VALID,0.894259,
2009-02-10, 03:13:00,VALID,917.33,VALID,0,VALID,94.9622,VALID,-0.101885,VALID,17.3446,VALID,107,VALID,0.656605,
2009-02-10, 03:14:00,VALID,917.34,VALID,0,VALID,94.9418,VALID,-0.0339617,VALID,17.3154,VALID,99,VALID,1.17588,
2009-02-10, 03:15:00,VALID,917.342,VALID,0,VALID,94.9647,VALID,-0.0509425,VALID,17.2665,VALID,110,VALID,1.27653,
2009-02-10, 03:16:00,VALID,917.338,VALID,0,VALID,94.9062,VALID,-0.0849042,VALID,17.2244,VALID,116,VALID,1.13406,
2009-02-10, 03:17:00,VALID,917.318,VALID,0,VALID,94.9533,VALID,-0.0679233,VALID,17.1889,VALID,114,VALID,1.0783,
2009-02-10, 03:18:00,VALID,917.295,VALID,0,VALID,94.9583,VALID,-0.0169808,VALID,17.1401,VALID,123,VALID,1.26302,
2009-02-10, 03:19:00,VALID,917.278,VALID,0,VALID,94.91,VALID,0,VALID,17.0915,VALID,115,VALID,1.39639,
2009-02-10, 03:20:00,VALID,917.26,VALID,0,VALID,94.8515,VALID,-0.0849042,VALID,17.0396,VALID,119,VALID,1.28106,
2009-02-10, 03:21:00,VALID,917.258,VALID,0,VALID,94.8909,VALID,-0.0169808,VALID,17.0044,VALID,115,VALID,1.22656,
2009-02-10, 03:22:00,VALID,917.258,VALID,0,VALID,94.9469,VALID,-0.0679233,VALID,16.9555,VALID,125,VALID,0.913542,
2009-02-10, 03:23:00,VALID,917.272,VALID,0,VALID,94.8439,VALID,0,VALID,16.9097,VALID,123,VALID,1.30105,
2009-02-10, 03:24:00,VALID,917.292,VALID,0,VALID,94.8859,VALID,-0.0339617,VALID,16.9194,VALID,117,VALID,1.18159,
2009-02-10, 03:25:00,VALID,917.313,VALID,0,VALID,94.7447,VALID,-0.0339617,VALID,16.9322,VALID,121,VALID,1.34357,
2009-02-10, 03:26:00,VALID,917.318,VALID,0,VALID,94.6163,VALID,-0.0169808,VALID,16.9454,VALID,115,VALID,1.39732,
2009-02-10, 03:27:00,VALID,917.326,VALID,0,VALID,94.6201,VALID,-0.0169808,VALID,16.9452,VALID,118,VALID,1.37624,
2009-02-10, 03:28:00,VALID,917.328,VALID,0,VALID,94.6315,VALID,-0.0339617,VALID,16.9486,VALID,120,VALID,1.46545,
2009-02-10, 03:29:00,VALID,917.322,VALID,0,VALID,94.7104,VALID,-0.0339617,VALID,16.9352,VALID,108,VALID,1.20103,
2009-02-10, 03:30:00,VALID,917.315,VALID,0,VALID,94.9088,VALID,0,VALID,16.8898,VALID,116,VALID,1.37798,
2009-02-10, 03:31:00,VALID,917.311,VALID,0,VALID,95.2826,VALID,-0.0169808,VALID,16.8449,VALID,130,VALID,1.31623,
2009-02-10, 03:32:00,VALID,917.299,VALID,0,VALID,95.6285,VALID,-0.0169808,VALID,16.8127,VALID,123,VALID,1.19992,
2009-02-10, 03:33:00,VALID,917.279,VALID,0,VALID,95.968,VALID,-0.0339617,VALID,16.7636,VALID,122,VALID,1.42934,
2009-02-10, 03:34:00,VALID,917.262,VALID,0,VALID,96.4538,VALID,-0.0339617,VALID,16.7667,VALID,127,VALID,1.5362,
2009-02-10, 03:35:00,VALID,917.247,VALID,0,VALID,96.6776,VALID,0,VALID,16.7835,VALID,129,VALID,1.45153,
2009-02-10, 03:36:00,VALID,917.257,VALID,0,VALID,96.736,VALID,0,VALID,16.7796,VALID,125,VALID,1.21652,
2009-02-10, 03:37:00,VALID,917.248,VALID,0,VALID,96.7971,VALID,0,VALID,16.7664,VALID,134,VALID,1.39602,